Tracking 28915 objects as of 30-May-2024
HD Live streaming from Space Station
objects crossing your sky now

MARAFON-D-GVM

Track MARAFON-D-GVM now!
10-day predictions
MARAFON-D-GVM is classified as:


NORAD ID: 59072
Int'l Code: 2024-039V
Perigee: 736.7 km
Apogee: 760.4 km
Inclination: 89.0 °
Period: 99.6 minutes
Semi major axis: 7119 km
RCS: Unknown
Launch date: February 29, 2024
Source: (TBD)
Launch site: VOSTOCHNY COSMODROME (VOSTO)

Uplink (MHz):
Downlink (MHz):
Beacon (MHz):
Mode:
Call sign:
Status: Unknown

Your satellite tracking list
Your tracking list is empty




NASA's NSSDC Master Catalog

Two Line Element Set (TLE):
1 59072U 24039V   24150.93613653  .00000397  00000-0  10889-3 0  9997
2 59072  88.9979  13.1068 0016613 357.2273   2.8836 14.45181176 13087
Source of the keplerian elements: AFSPC